Vorticity
nan nan nan nan nan nan nan nan nan nan nan nan nan nan nan nan nan nan nan nan nan nan nan nan nan nan nan nan nan nan nan nan nan nan nan nan nan nan nan nan nan nan nan nan nan nan nan nan nan
nan 7 4 6 8 3 5 10 7 5 4 5 10 9 7 8 7 2 5 15 16 10 7 6 4 6 5 5 5 5 7 8 8 8 7 7 6 6 5 4 5 7 6 5 4 4 5 7 nan
nan 6 7 4 4 3 4 9 13 6 4 6 7 6 8 3 4 9 8 12 15 11 6 9 5 5 5 4 4 5 6 7 8 8 7 7 6 6 6 4 5 7 6 5 5 3 5 6 nan
nan 7 5 5 3 3 6 3 3 2 4 0 5 8 2 3 2 9 13 16 13 9 5 5 6 6 5 5 5 5 5 6 7 7 8 7 7 6 6 5 6 6 5 6 5 6 6 5 nan
nan 5 7 4 4 7 5 1 1 2 2 5 6 6 2 -1 3 11 17 17 12 8 8 3 5 7 7 5 5 5 5 5 6 6 7 8 7 7 6 5 5 5 5 5 6 7 6 6 nan
nan 5 7 3 6 6 2 10 7 7 8 11 6 5 7 -2 2 9 14 14 13 9 9 6 5 6 7 6 6 5 6 6 5 5 7 7 6 6 6 5 5 5 6 6 7 6 6 6 nan
nan 7 3 5 6 3 9 9 9 7 12 9 7 9 5 -1 0 8 12 13 13 9 8 8 7 2 4 6 7 6 6 6 6 7 6 5 6 6 6 5 5 5 6 7 7 7 6 7 nan
nan 7 9 6 8 8 14 4 10 9 4 4 8 7 -4 -3 5 8 9 12 11 10 8 6 8 7 5 1 4 7 6 7 7 6 7 7 5 5 6 5 8 6 6 8 7 6 7 7 nan
nan 7 9 7 5 10 3 4 3 5 5 1 2 -1 1 4 8 7 9 10 8 7 9 7 6 6 8 8 4 3 5 4 5 6 5 6 6 7 5 5 7 6 7 7 7 8 8 6 nan
nan 1 4 10 6 6 1 3 -0 5 6 3 3 5 4 5 7 8 7 10 13 8 6 6 7 6 5 9 9 7 6 5 6 5 3 3 7 6 6 6 4 6 6 6 7 7 6 5 nan
nan 3 6 7 6 5 5 6 5 3 5 4 3 6 7 7 6 8 9 7 12 14 8 7 5 6 5 5 5 7 7 10 12 8 4 5 7 6 7 6 6 6 6 5 7 5 4 4 nan
nan 6 6 5 7 7 5 4 4 5 6 6 7 7 7 7 4 6 8 9 11 12 10 9 7 5 5 5 6 6 5 7 7 9 8 5 7 8 6 7 8 7 7 8 6 6 8 7 nan
nan 6 9 9 8 7 7 8 7 9 10 9 9 8 8 8 7 9 7 7 8 8 11 11 8 6 6 4 5 7 7 6 8 9 6 5 6 8 9 7 7 7 7 8 7 7 8 9 nan
nan 10 7 8 8 9 8 8 9 7 7 9 10 10 9 9 10 9 8 7 8 10 11 13 10 8 6 6 5 4 7 8 7 8 9 8 3 6 8 8 9 7 7 6 7 8 8 8 nan
nan 7 9 15 13 11 9 11 15 10 10 10 12 10 7 6 9 7 7 8 9 9 11 13 14 11 6 6 5 6 7 8 7 10 11 7 5 4 6 7 8 10 9 8 7 8 7 8 nan
nan 8 10 13 14 12 7 8 19 15 11 6 5 6 8 8 5 9 9 9 8 10 9 10 14 12 11 8 6 7 7 6 7 8 11 10 7 4 7 7 7 9 10 10 8 9 7 8 nan
nan 6 9 1 8 7 4 3 4 4 1 1 5 7 8 8 8 8 8 8 8 9 9 9 12 14 14 11 10 8 7 7 7 8 10 10 9 6 5 9 8 8 9 9 8 9 9 8 nan
nan 8 2 5 7 7 2 3 3 4 5 6 7 8 10 10 9 6 7 7 8 9 9 10 10 12 15 15 11 10 11 8 7 8 8 9 10 9 4 8 9 7 7 9 9 8 7 8 nan
nan 7 7 8 4 8 9 9 9 10 11 10 10 12 10 9 7 6 6 7 8 7 8 8 9 11 13 16 13 9 9 8 9 11 8 8 8 10 6 6 9 7 8 9 7 8 10 8 nan
nan 6 7 7 9 8 7 5 10 18 16 14 16 16 9 7 6 5 6 7 7 7 7 7 8 9 11 10 12 11 9 9 9 9 12 11 9 8 6 7 8 6 7 10 8 3 7 12 nan
nan 6 6 3 7 11 17 16 16 13 19 15 13 9 7 5 5 6 6 7 8 8 8 8 8 8 8 11 13 11 9 10 10 9 10 12 11 7 7 6 5 8 7 8 9 8 3 4 nan
nan 9 6 9 8 10 8 16 17 10 11 8 5 4 4 5 7 6 6 6 8 9 9 9 8 9 8 10 12 12 13 11 8 9 7 12 12 8 8 7 7 7 8 9 8 8 7 3 nan
nan 12 13 11 7 8 2 6 9 17 7 7 4 3 4 4 5 6 7 7 8 8 9 10 9 10 9 10 10 12 10 9 10 10 12 10 12 14 10 9 7 6 9 10 9 8 7 6 nan
nan 13 10 10 13 13 18 6 10 14 6 7 3 3 3 5 6 7 8 8 9 7 8 8 9 10 11 10 11 10 11 10 9 9 10 9 11 14 13 10 9 8 7 9 10 10 7 6 nan
nan 6 9 9 7 7 18 12 14 10 8 10 8 3 4 6 7 7 8 10 9 7 8 8 9 10 10 11 12 12 12 16 14 10 10 8 8 11 14 11 7 8 9 8 8 9 10 7 nan
nan 5 8 9 7 9 6 9 14 10 10 6 6 4 6 6 6 7 8 9 8 9 9 9 9 10 11 11 13 14 14 14 16 12 9 10 9 11 12 12 12 9 7 10 8 8 11 10 nan
nan 9 8 16 12 7 9 10 6 6 5 -0 0 4 7 7 7 7 9 9 9 9 10 11 11 12 10 11 14 14 13 12 19 12 5 8 10 12 12 11 11 12 11 11 8 9 11 9 nan
nan 14 11 9 10 11 10 8 12 11 -1 1 5 7 8 8 8 9 10 10 11 10 11 12 11 10 10 13 14 13 11 22 23 13 8 8 10 11 11 9 10 11 12 10 8 8 11 8 nan
nan 2 0 6 10 10 9 7 14 15 7 3 6 8 8 8 8 9 10 10 11 11 11 12 12 11 12 12 10 12 22 28 21 13 10 11 12 12 11 11 11 12 10 8 10 11 10 7 nan
nan nan nan nan nan nan nan nan nan nan nan nan nan nan nan nan nan nan nan nan nan nan nan nan nan nan nan nan nan nan nan nan nan nan nan nan nan nan nan nan nan nan nan nan nan nan nan nan nan
CAPE
0 0 0 0 0 0 0 0 0 0 0 0 0 0 0 0 0 0 150 1338 1554 1605 2307 1987 1653 1775 1872 1909 1975 2259 2499 2634 2498 2279 2174 2272 2281 2243 2346 2418 2485 2713 2762 2587 2065 2141 2180 2450 2439
0 0 0 0 0 0 0 0 0 0 0 0 0 0 0 0 0 0 532 1668 1563 1811 2144 2111 1600 1723 1844 1891 1997 2269 2665 2778 2676 2474 2406 2421 2409 2373 2406 2397 2467 2768 2883 2766 2138 2240 2259 2262 1773
0 0 0 0 0 0 0 0 0 0 0 0 0 0 0 0 0 25 975 1744 1526 1823 1979 2304 1664 1647 1786 1837 1968 2174 2474 2571 2634 2553 2616 2573 2560 2567 2543 2409 2586 2890 2941 2826 2286 2492 2581 1687 1459
0 0 0 0 0 0 0 0 0 0 0 0 0 0 0 0 0 0 1078 1692 1733 1863 2097 1725 1597 1615 1749 1893 1965 2113 2169 2262 2419 2544 2674 2684 2702 2742 2578 2424 2721 3018 2962 2940 2855 2890 2294 1405 1264
0 0 0 0 0 0 0 0 0 0 0 0 0 0 0 0 0 139 1808 1902 1683 1977 2372 2538 1543 1639 1787 1983 2055 2044 1936 2024 2255 2497 2617 2704 2796 2754 2516 2451 2722 2921 2919 2920 2891 2616 1733 1334 1236
0 0 0 0 0 0 0 0 0 0 0 0 0 0 0 0 0 58 1781 2209 2049 2202 2563 2698 1763 1712 1816 1954 1976 1868 1747 1795 2049 2308 2475 2693 2700 2531 2443 2475 2581 2584 2658 2631 2574 2129 1538 1373 1311
0 0 0 0 0 0 0 0 0 0 0 0 0 0 0 0 0 55 1437 2272 2489 2550 2749 2929 2705 2198 1730 1861 1852 1758 1651 1665 1838 2058 2276 2475 2448 2316 2359 2502 2474 2445 2348 2357 2130 1853 1438 1404 1351
0 0 0 0 0 0 0 0 0 0 0 0 0 0 0 0 0 0 859 2215 2436 2603 2900 3022 2963 2601 2744 2477 1609 1532 1560 1584 1757 1864 1998 2171 2220 2226 2171 2279 2327 2252 2209 2111 1947 1572 1359 1357 1254
0 0 0 0 0 0 0 0 0 0 0 0 0 0 0 0 0 0 0 1644 2283 2261 2530 2614 2297 2341 2530 2842 2386 1531 1457 1481 1584 1781 1836 1920 2269 2603 2507 2184 2066 2087 1977 1788 1779 1390 1208 1245 1082
0 0 0 0 0 0 0 0 0 0 0 0 0 0 0 0 0 0 0 0 2010 2242 2197 2106 1957 2149 2197 2193 2875 2658 2598 2326 2226 2178 2299 2311 2313 2493 2218 2092 1901 1929 1730 1519 1476 1269 1067 1111 1641
0 0 0 0 0 0 0 0 0 0 0 0 0 0 0 0 0 0 0 0 829 1966 2211 2215 2090 2052 2160 2003 2634 2617 2843 2665 2720 2730 2780 2495 2486 2655 2510 2590 2571 2605 1572 2088 1612 1715 1824 1634 1650
0 0 0 0 0 0 0 0 0 0 0 0 0 0 0 0 0 0 0 0 0 1912 1883 2167 2194 2301 2210 1998 2524 2581 2622 2571 2236 2584 3008 2860 2745 2624 2538 2393 2506 2487 2397 2116 2109 1881 1813 1710 1700
0 0 0 0 0 0 0 0 0 0 0 0 0 0 0 0 0 0 0 0 0 0 442 1846 1956 2143 1987 1814 2201 2239 2209 2158 2273 2729 2786 2968 2637 2730 2528 2304 2289 2419 2210 2183 2187 1924 1915 1779 1770
0 0 0 0 0 0 0 0 0 0 0 0 0 0 0 0 0 0 0 0 0 0 0 24 1719 1957 1892 1852 2107 2023 2116 2013 2207 2329 2343 3151 2680 2564 2363 2442 2430 2428 2321 2206 2115 2026 1967 1792 1606
0 0 0 0 0 0 0 0 0 0 0 0 0 0 0 0 0 0 0 0 0 0 0 0 51 2156 2086 1887 1897 1919 1800 1919 1843 2086 2353 2542 2651 2548 2350 2250 2295 2375 2299 2352 2247 2098 1901 1772 1397
0 0 0 0 0 0 0 0 0 0 0 0 0 0 0 0 0 0 0 0 0 0 0 0 0 0 457 1860 2121 2125 1963 1951 1898 1891 2057 2485 2416 2371 2316 1830 1995 2073 2419 2341 2156 1891 1686 1793 1552
0 0 0 0 0 0 0 0 0 0 0 0 0 0 0 0 0 0 0 0 0 0 0 0 0 0 3 767 1670 2130 2343 2217 2089 2040 1953 1982 2117 1919 1872 1635 1807 1820 1708 1987 1913 1779 1753 1569 1325
0 0 0 0 0 0 0 0 0 0 0 0 0 0 0 0 0 0 0 0 0 0 0 0 0 0 0 16 1021 1445 1968 2240 2363 2219 2004 1828 1792 1655 1822 1750 1938 1482 1460 1726 1664 1433 1334 1347 1198
0 0 0 0 0 0 0 0 0 0 0 0 0 0 0 0 0 0 0 0 0 0 0 0 0 0 0 0 95 907 1652 1858 1781 2235 2183 1919 1815 1760 1671 1685 1689 1346 1347 1384 1352 1438 1074 1124 919
0 0 0 0 0 0 0 0 0 0 0 0 0 0 0 0 0 0 0 0 0 0 0 0 0 0 0 0 0 313 1039 1257 1457 1778 2136 2028 1681 1741 1615 1760 1565 1374 1369 1343 1132 995 664 808 963
0 0 0 0 0 0 0 0 0 0 0 0 0 0 0 0 0 0 0 0 0 0 0 0 0 0 0 1 0 0 770 1344 1329 1477 1844 1874 1998 1796 1600 1642 1703 1468 1498 1377 1205 876 733 472 403
0 0 0 0 0 0 0 0 0 0 0 0 0 0 0 0 0 0 0 0 0 0 0 0 0 0 0 0 3 2 203 1082 1410 1515 1515 1587 1694 2067 1762 1712 1744 1774 1391 1378 1403 902 1096 913 438
0 0 0 0 0 0 0 0 0 0 0 0 0 0 0 0 0 0 0 0 0 0 0 0 0 1 0 2 5 10 30 1116 1435 1439 1658 1653 1551 1702 1902 1946 1869 1778 1459 1239 1322 1117 1249 1379 1065
0 0 0 0 0 0 0 0 0 0 0 0 4 0 0 0 0 0 0 0 0 0 0 0 0 1 1 3 5 9 13 262 1667 1742 1846 1640 1674 1395 1572 1738 1876 1845 1347 1089 1232 1524 1472 1124 1147
0 3 15 11 5 0 0 0 0 0 0 0 3 4 0 0 0 0 0 0 0 0 0 0 1 2 2 2 5 6 6 42 830 2009 2090 1931 1841 1401 1440 1472 1585 1449 1346 1663 1545 1731 1512 1320 1236
0 24 27 6 9 9 0 0 21 5 6 0 0 0 0 0 0 0 0 0 0 1 3 4 3 4 2 3 6 7 7 7 799 1669 1533 1888 1924 1415 1363 1343 1430 1381 1544 1390 1503 1502 1349 1166 1281
0 6 0 14 12 5 0 0 19 7 17 17 6 2 1 0 0 0 0 0 1 1 4 4 6 5 6 9 10 9 9 8 996 2042 1655 1656 2104 1588 1361 1288 1198 1275 1124 849 1121 1271 1194 835 951
0 0 7 21 1 0 0 0 0 15 14 9 7 2 1 0 0 0 0 0 2 3 4 7 9 9 9 11 11 10 8 4 1462 1922 1822 1614 2149 1847 1467 1302 1035 935 696 521 868 988 883 521 720
0 0 0 1 1 0 0 0 18 2 5 5 1 0 0 0 0 0 0 0 1 3 3 4 7 5 10 12 8 8 8 917 1269 1577 1857 1722 1838 1553 1410 1179 704 691 603 394 394 459 532 516 579
0 0 0 0 0 0 0 0 18 8 1 0 0 0 0 0 0 0 0 1 1 1 2 4 3 0 7 8 10 11 11 13 622 989 1294 1315 1204 953 718 701 491 389 434 398 423 438 345 378 341